Showing default

METEOR 1-10, 5731

Orbit data source: Space-Track

METEOR 1-10, 5731 is a Commonwealth of Independent States-origin payload satellite in LEO that was launched on Wed, 29 Dec 1971 UTC via a VOSTOK 8A92M launch vehicle from the Plesetsk Missile And Space Complex (PKMTR). Payload-class satellites include a variety of spacecraft equipped with specific instruments for various scientific and technological missions. These include communications satellites like Starlink; space stations such as the ISS; scientific satellites like the Hubble; Earth observation satellites from companies like Planet Labs, Umbra, and HawkEye 360; GPS; miniature CubeSats for education and research; and military/defense satellites.

Loading next visibility...
Identifier
5731, 1971-120A
Orbit
LEO
Country
Flag of CISCIS
Related business
Manufacturer
VNIIEM
Mission
Spacecraft
Bus & Motor
METEOR, Unknown motor
Mass
1,280 kg wet, 1,280 kg dry
Launch date (UTC)
1971-12-29 (54 years ago)
Launch vehicle
VOSTOK 8A92M
Launch site
Plesetsk Missile And Space Complex (PKMTR)
Object type
Payload
Rocket body
Debris
Shape & HBR
Unknown
Radar Cross Section
Large (>1 m²)

Expand to show TLE details & history
Last TLE update: 2 days ago

TLE from 2 days ago
0 METEOR 1-10
1  5731U 71120A   26171.31964681  .00000198  00000-0  10094-3 0  9997
2  5731  81.2590  17.3386 0024314  50.3833 309.9480 14.11889171796553
Epoch: 2026-06-20T07:40Z
TLE epoch observation values (Epoch: 2026-06-20T07:40:17.484Z)
Latitude
-0°
Longitude
-6.27022°
Altitude
844.551 km
Speed
7.436 km/s
True Right ascension
01h 09m 21s
True Declination
0° 00' 00"
Sunlit
Object was in daylight at epoch
Visualization orbit readout
Latitude
Unknown
Longitude
Unknown
Altitude
Unknown
Speed
Unknown
Apparent Right ascension
Unknown
Apparent Declination
Unknown
Sunlit
N/A
Visualization observer readout
Local Sidereal Time
23:08:23
Azimuth
Unknown
Elevation
Unknown
Doppler factor
Unknown
Orbital elements
Apogee altitude
867.66 km
Perigee altitude
832.51 km
Semi-major axis
7,228.222 km
Eccentricity
0.00243
Inclination
81.259°
RAAN
17.3386°
Arg. of periapsis
50.3833°
True anomaly
309.73399°
Mean anomaly
309.948°
Eccentric anomaly
309.84104°
Mean motion
3.5318 °/min
Orbital period
101.93 mins
BSTAR
0.00010094
Loading maneuver chart data...
Computing Atmospheric mass density...

Documentation

Showing up to 5 results
|